Weather History for Franklin, NC

Change the Weather History Date:

Wednesday, January 30, 2013

  Actual Average (KTOC) Record (KTOC)
Temperature  
Mean Temperature 52 °F -  
Max Temperature 62 °F 56 °F 41 °F (2014)
Min Temperature 41 °F 32 °F 17 °F (2014)
Degree Days  
Heating Degree Days 14    
Growing Degree Days 2 (Base 50)    
Moisture  
Dew Point 53 °F    
Average Humidity 92    
Maximum Humidity 100    
Minimum Humidity 70    
Precipitation  
Precipitation 2.48 in - - ()
Sea Level Pressure  
Sea Level Pressure 29.72 in    
Wind  
Wind Speed 7 mph (SE)    
Max Wind Speed 22 mph    
Max Gust Speed 40 mph    
Visibility 7 miles    
Events Rain    
Averages and records for this station are not official NWS values.
T = Trace of Precipitation, MM = Missing Value Source: NWS Daily Summary

Daily Weather History Graph

Daily Weather History Graph

Search for Another Location

Airport:

Trip Planner

Search our weather history database for the weather conditions in past years. The results will help you decide how hot, cold, wet, or windy it might be!

Date:

Astronomy

Jan. 30, 2013 Rise Set
Actual Time 7:34 AM EST 6:00 PM EST
Civil Twilight 7:07 AM EST 6:27 PM EST
Nautical Twilight 6:36 AM EST 6:57 PM EST
Astronomical Twilight 6:07 AM EST 7:27 PM EST
Moon 9:46 PM EST (1/30) 9:11 AM EST (1/30)
Length of Visible Light 11h 19m
Length of Day
10h 26m
Waning Gibbous, 88% of the Moon is Illuminated
Jan 30
Waning Gibbous
Feb 3
Last Quarter
Feb 10
New
Feb 17
First Quarter
Feb 25
Full

Hourly Weather History & Observations

Time (EST) Temp. Windchill Dew Point Humidity Pressure Visibility Wind Dir Wind Speed Gust Speed Precip Events Conditions
12:15 AM 60.1 °F - 58.1 °F 93% 29.99 in 7.0 mi SSE 8.1 mph - 0.03 in Rain Light Rain
12:35 AM 60.3 °F - 57.9 °F 92% 29.98 in 7.0 mi South 9.2 mph 19.6 mph 0.06 in Rain Light Rain
12:55 AM 60.8 °F - 55.6 °F 83% 29.98 in 10.0 mi SSE 5.8 mph - 0.06 in   Overcast
1:15 AM 61.2 °F - 54.0 °F 77% 29.98 in 10.0 mi SSE 5.8 mph - N/A   Overcast
1:35 AM 61.0 °F - 53.2 °F 76% 29.96 in 10.0 mi SSE 6.9 mph 18.4 mph N/A   Overcast
1:55 AM 60.8 °F - 53.2 °F 76% 29.96 in 10.0 mi SE 8.1 mph - N/A Rain Light Rain
2:15 AM 60.4 °F - 53.8 °F 79% 29.93 in 10.0 mi SSE 8.1 mph - N/A   Overcast
2:35 AM 60.8 °F - 54.1 °F 79% 29.93 in 10.0 mi SSE 6.9 mph 18.4 mph N/A   Overcast
2:55 AM 60.6 °F - 55.0 °F 82% 29.92 in 7.0 mi SE 8.1 mph 16.1 mph N/A Rain Light Rain
3:15 AM 59.5 °F - 57.7 °F 94% 29.91 in 5.0 mi SE 9.2 mph 18.4 mph 0.02 in Rain Rain
3:35 AM 59.0 °F - 58.1 °F 97% 29.90 in 7.0 mi SE 5.8 mph 19.6 mph 0.03 in Rain Rain
3:55 AM 59.0 °F - 57.4 °F 94% 29.90 in 7.0 mi ESE 6.9 mph 16.1 mph 0.04 in Rain Light Rain
4:15 AM 58.5 °F - 57.2 °F 96% 29.88 in 7.0 mi ESE 10.4 mph - 0.01 in   Drizzle
4:35 AM 58.3 °F - 57.4 °F 97% 29.87 in 7.0 mi East 8.1 mph - 0.02 in Rain Light Rain
4:55 AM 58.1 °F - 57.4 °F 97% 29.85 in 7.0 mi East 10.4 mph 17.3 mph 0.03 in Rain Rain
5:15 AM 58.1 °F - 57.6 °F 98% 29.85 in 7.0 mi ESE 9.2 mph - 0.01 in Rain Light Rain
5:35 AM 58.1 °F - 57.7 °F 99% 29.85 in 10.0 mi ESE 6.9 mph - 0.01 in Rain Rain
5:55 AM 58.1 °F - 57.7 °F 99% 29.83 in 7.0 mi SE 9.2 mph - 0.02 in Rain Rain
6:15 AM 58.5 °F - 57.7 °F 97% 29.82 in 5.0 mi SE 10.4 mph 18.4 mph 0.03 in Rain Rain
6:35 AM 58.6 °F - 58.1 °F 98% 29.82 in 5.0 mi SE 9.2 mph 19.6 mph 0.09 in Rain Rain
7:15 AM 59.2 °F - 57.7 °F 95% 29.80 in 5.0 mi SE 6.9 mph 21.9 mph 0.03 in Rain Rain
7:35 AM 59.5 °F - 57.9 °F 94% 29.80 in 10.0 mi SSE 9.2 mph 20.7 mph 0.04 in Rain Rain
7:55 AM 59.9 °F - 58.1 °F 94% 29.79 in 10.0 mi SE 10.4 mph 19.6 mph 0.06 in Rain Rain
8:15 AM 59.7 °F - 59.0 °F 97% 29.78 in 4.0 mi SSE 10.4 mph - 0.10 in Rain Rain
8:35 AM 60.1 °F - 58.5 °F 94% 29.78 in 7.0 mi South 9.2 mph 20.7 mph 0.12 in Rain Light Rain
8:55 AM 60.1 °F - 58.5 °F 94% 29.78 in 7.0 mi SE 12.7 mph 19.6 mph 0.13 in Rain Rain
9:15 AM 59.9 °F - 59.5 °F 99% 29.77 in 5.0 mi SSE 11.5 mph 20.7 mph 0.04 in Rain Light Rain
9:35 AM 60.3 °F - 59.7 °F 98% 29.76 in 5.0 mi SE 10.4 mph 19.6 mph 0.06 in Rain Light Rain
9:55 AM 60.6 °F - 59.7 °F 97% 29.75 in 5.0 mi SSE 12.7 mph 23.0 mph 0.08 in Rain Rain
10:15 AM 61.0 °F - 58.8 °F 93% 29.75 in 7.0 mi SE 9.2 mph 17.3 mph 0.01 in Rain Light Rain
10:35 AM 60.4 °F - 59.9 °F 98% 29.75 in 5.0 mi SSE 10.4 mph - 0.02 in Rain Light Rain
10:55 AM 60.8 °F - 60.1 °F 97% 29.74 in 5.0 mi SE 8.1 mph 19.6 mph 0.05 in Rain Heavy Rain
11:15 AM 60.8 °F - 60.1 °F 97% 29.72 in 4.0 mi SSE 9.2 mph 17.3 mph 0.05 in Rain Light Rain
11:35 AM 60.8 °F - 59.9 °F 97% 29.71 in 4.0 mi SE 10.4 mph 21.9 mph 0.10 in Rain Heavy Rain
11:55 AM 60.8 °F - 60.4 °F 99% 29.69 in 3.0 mi SE 9.2 mph 18.4 mph 0.17 in Rain Rain
12:15 PM 61.0 °F - 59.7 °F 96% 29.67 in 5.0 mi SSE 6.9 mph 20.7 mph 0.04 in Rain Rain
12:35 PM 61.7 °F - 59.2 °F 91% 29.64 in 5.0 mi ESE 6.9 mph 16.1 mph 0.07 in Rain Rain
12:55 PM 61.7 °F - 58.1 °F 88% 29.61 in 5.0 mi SE 11.5 mph 27.6 mph 0.11 in Rain Heavy Rain
1:15 PM 61.7 °F - 58.3 °F 89% 29.61 in 3.0 mi SSE 4.6 mph 26.5 mph 0.09 in Rain Heavy Rain
1:35 PM 56.1 °F - 52.3 °F 87% 29.63 in 1.0 mi SSW 8.1 mph 40.3 mph 0.42 in Rain Heavy Rain
1:55 PM 56.5 °F - 54.1 °F 92% 29.64 in 3.0 mi SW 8.1 mph - 0.59 in Rain Heavy Rain
2:15 PM 55.8 °F - 55.8 °F 100% 29.64 in 3.0 mi ENE 5.8 mph - 0.15 in Rain Heavy Rain
2:35 PM 55.6 °F - 55.6 °F 100% 29.61 in 5.0 mi ESE 6.9 mph - 0.21 in Rain Rain
2:55 PM 55.4 °F - 55.4 °F 100% 29.60 in 3.0 mi East 3.5 mph - 0.31 in Rain Rain
3:15 PM 55.0 °F - 55.0 °F 100% 29.60 in 5.0 mi East 4.6 mph - 0.05 in Rain Rain
3:35 PM 55.4 °F - 55.4 °F 100% 29.58 in 3.0 mi Calm Calm - 0.13 in Rain Heavy Rain
3:55 PM 55.2 °F - 55.2 °F 100% 29.58 in 5.0 mi East 4.6 mph - 0.19 in Rain Rain
4:15 PM 55.4 °F - 55.4 °F 100% 29.56 in 4.0 mi ENE 4.6 mph - 0.07 in Rain Rain
4:35 PM 54.9 °F - 54.9 °F 100% 29.54 in 5.0 mi NE 5.8 mph - 0.16 in Rain Heavy Rain
4:55 PM 54.9 °F - 54.9 °F 100% 29.54 in 5.0 mi Calm Calm - 0.19 in Rain Rain
5:15 PM 54.9 °F - 54.9 °F 100% 29.54 in 5.0 mi Calm Calm - 0.05 in Rain Rain
5:35 PM 55.2 °F - 55.0 °F 99% 29.54 in 7.0 mi Calm Calm - 0.11 in Rain Rain
5:55 PM 54.0 °F - 50.0 °F 86% 29.57 in 7.0 mi West 21.9 mph 29.9 mph 0.14 in Rain Rain
6:15 PM 49.8 °F - 43.9 °F 80% 29.61 in 7.0 mi West 18.4 mph 24.2 mph 0.02 in Rain Rain
6:35 PM 48.2 °F - 42.1 °F 79% 29.60 in 7.0 mi West 9.2 mph 16.1 mph 0.06 in Rain Rain
6:55 PM 47.3 °F - 41.7 °F 81% 29.63 in 7.0 mi West 3.5 mph - 0.11 in Rain Rain
7:15 PM 46.8 °F - 40.8 °F 80% 29.59 in 7.0 mi North 4.6 mph - 0.04 in Rain Rain
7:35 PM 45.7 °F - 43.5 °F 92% 29.59 in 10.0 mi Calm Calm - 0.07 in Rain Light Rain
7:55 PM 45.1 °F - 44.6 °F 98% 29.60 in 10.0 mi Calm Calm - 0.07 in Rain Light Rain
8:15 PM 45.5 °F - 45.0 °F 98% 29.61 in 10.0 mi Calm Calm - N/A Rain Rain
8:35 PM 45.5 °F 41.8 °F 36.3 °F 70% 29.59 in 10.0 mi NW 6.9 mph 20.7 mph N/A Rain Light Rain
8:55 PM 44.2 °F - 37.8 °F 78% 29.60 in 10.0 mi Calm Calm - 0.01 in Rain Light Rain
9:15 PM 43.0 °F - 40.6 °F 91% 29.59 in 10.0 mi Calm Calm - 0.01 in Rain Light Rain
9:35 PM 42.8 °F 41.1 °F 41.4 °F 95% 29.58 in 10.0 mi ENE 3.5 mph - 0.01 in   Overcast
9:55 PM 43.9 °F 42.3 °F 38.1 °F 80% 29.59 in 10.0 mi South 3.5 mph - 0.01 in Rain Light Rain
10:15 PM 43.3 °F 41.7 °F 38.3 °F 82% 29.60 in 10.0 mi South 3.5 mph - N/A   Drizzle
10:35 PM 42.8 °F 41.1 °F 40.5 °F 91% 29.57 in 10.0 mi NNE 3.5 mph - N/A Rain Light Rain
10:55 PM 42.3 °F - 41.4 °F 97% 29.59 in 7.0 mi Calm Calm - 0.01 in Rain Rain
11:15 PM 42.3 °F - 41.0 °F 95% 29.59 in 10.0 mi Calm Calm - N/A   Light Drizzle
11:35 PM 43.3 °F 38.6 °F 36.7 °F 77% 29.63 in 7.0 mi WNW 8.1 mph 17.3 mph 0.01 in Rain Rain
11:55 PM 41.0 °F 35.2 °F 34.0 °F 76% 29.64 in 10.0 mi WNW 9.2 mph - 0.01 in   Light Drizzle